Weather History for PASC - November, 2013

Change the Weather History Date:

Monday, November 11, 2013

  Actual Average Record
Temperature  
Mean Temperature 14 °F -  
Max Temperature 19 °F 7 °F 37 °F (1997)
Min Temperature 8 °F 0 °F -27 °F (1988)
Degree Days  
Heating Degree Days 50    
Moisture  
Dew Point 12 °F    
Average Humidity 88    
Maximum Humidity 96    
Minimum Humidity 79    
Precipitation  
Precipitation 0.22 in - - ()
Sea Level Pressure  
Sea Level Pressure 29.77 in    
Wind  
Wind Speed 32 mph (WSW)    
Max Wind Speed 48 mph    
Max Gust Speed 56 mph    
Visibility 3 miles    
Events Rain , Snow    
Averages and records for this station are not official NWS values.
T = Trace of Precipitation, MM = Missing Value Source: NWS Daily Summary

Daily Weather History Graph

Daily Weather History Graph

Search for Another Location

Airport or City:

Trip Planner

Search our weather history database for the weather conditions in past years. The results will help you decide how hot, cold, wet, or windy it might be!

Date:

Astronomy

Nov. 11, 2013 Rise Set
Actual Time 10:25 AM AKST 2:49 PM AKST
Civil Twilight 8:53 AM AKST 4:21 PM AKST
Nautical Twilight 7:32 AM AKST 5:41 PM AKST
Astronomical Twilight 6:20 AM AKST 6:54 PM AKST
Moon 2:51 PM AKST (11/11) 12:43 AM AKST (11/11)
Length of Visible Light 7h 27m
Length of Day
4h 24m
Waxing Gibbous, 68% of the Moon is Illuminated
Nov 11
Waxing Gibbous
Nov 17
Full
Nov 25
Last Quarter
Dec 2
New
Dec 9
First Quarter

Hourly Weather History & Observations

Time (AKST) Temp. Windchill Dew Point Humidity Pressure Visibility Wind Dir Wind Speed Gust Speed Precip Events Conditions
12:53 AM 15.1 °F -2.0 °F 12.0 °F 88% 29.54 in 10.0 mi SW 19.6 mph - N/A   Scattered Clouds
1:53 AM 15.1 °F -2.5 °F 10.9 °F 84% 29.55 in 10.0 mi SW 20.7 mph - N/A   Scattered Clouds
2:53 AM 16.0 °F -2.1 °F 10.9 °F 81% 29.56 in 10.0 mi SW 23.0 mph - N/A   Scattered Clouds
3:53 AM 16.0 °F -3.2 °F 10.9 °F 81% 29.57 in 10.0 mi SW 26.5 mph - N/A   Partly Cloudy
4:53 AM 16.0 °F -4.7 °F 10.9 °F 81% 29.56 in 4.0 mi SW 32.2 mph - N/A Snow Blowing Snow
5:31 AM 17.6 °F -3.3 °F 12.2 °F 79% 29.56 in 2.5 mi SW 35.7 mph 41.4 mph N/A Snow Blowing Snow
5:36 AM 17.6 °F -4.3 °F 14.0 °F 86% 29.55 in 0.8 mi WSW 40.3 mph 46.0 mph 0.02 in Snow Light Snow
5:53 AM 19.0 °F -2.7 °F 16.0 °F 88% 29.56 in 0.5 mi WSW 42.6 mph 50.6 mph 0.03 in Snow Light Snow
5:59 AM 19.4 °F -2.4 °F 15.8 °F 86% 29.55 in 0.2 mi WSW 43.7 mph 50.6 mph 0.01 in Snow Light Snow
6:16 AM 19.4 °F -2.7 °F 17.6 °F 93% 29.56 in 0.2 mi WSW 44.9 mph 52.9 mph 0.06 in Snow Light Snow
6:29 AM 19.4 °F -2.0 °F 17.6 °F 93% 29.56 in 0.2 mi WSW 41.4 mph 52.9 mph 0.12 in Snow Light Snow
6:53 AM 19.0 °F -3.2 °F 18.0 °F 96% 29.57 in 0.2 mi WSW 44.9 mph 52.9 mph 0.19 in Snow Light Snow
7:53 AM 19.9 °F -1.9 °F 18.0 °F 92% 29.60 in 0.2 mi WSW 44.9 mph 56.4 mph 0.00 in Snow Snow
8:53 AM 19.9 °F -2.5 °F 18.0 °F 92% 29.64 in 0.2 mi WSW 48.3 mph 56.4 mph 0.00 in Rain , Snow Light Freezing Rain
9:53 AM 19.9 °F -2.1 °F 18.0 °F 92% 29.68 in 0.2 mi WSW 46.0 mph 52.9 mph 0.00 in Snow Snow
10:07 AM 19.4 °F -3.1 °F 17.6 °F 93% 29.68 in 0.2 mi WSW 47.2 mph 55.2 mph 0.00 in Snow Snow
10:53 AM 18.0 °F -4.5 °F 16.0 °F 92% 29.73 in 0.2 mi WSW 43.7 mph 49.5 mph 0.00 in Snow Snow
11:00 AM 17.6 °F -4.5 °F 15.8 °F 93% 29.72 in 0.2 mi WSW 41.4 mph 49.5 mph 0.00 in Snow Snow
11:53 AM 17.1 °F -5.3 °F 15.1 °F 92% 29.77 in 0.2 mi WSW 41.4 mph 49.5 mph 0.00 in Snow Snow
12:53 PM 17.1 °F -4.6 °F 15.1 °F 92% 29.81 in 0.2 mi WSW 38.0 mph 46.0 mph 0.00 in Snow Snow
1:53 PM 14.0 °F -7.1 °F 12.0 °F 92% 29.85 in 0.2 mi WSW 31.1 mph 40.3 mph 0.00 in Snow Snow
2:00 PM 14.0 °F -7.7 °F 10.4 °F 86% 29.84 in 0.2 mi WSW 33.4 mph 39.1 mph 0.00 in Snow Snow
2:34 PM 12.2 °F -10.2 °F 10.4 °F 92% 29.86 in 0.5 mi WSW 33.4 mph 39.1 mph 0.00 in Snow Light Snow
2:53 PM 12.9 °F -9.2 °F 10.0 °F 88% 29.88 in 0.5 mi WSW 33.4 mph 40.3 mph 0.00 in Snow Light Snow
3:39 PM 12.2 °F -9.9 °F 10.4 °F 92% 29.89 in 1.0 mi WSW 32.2 mph - 0.00 in Snow Blowing Snow
3:53 PM 12.0 °F -9.8 °F 9.0 °F 88% 29.91 in 1.0 mi WSW 31.1 mph - 0.00 in Snow Blowing Snow
4:53 PM 12.0 °F -9.5 °F 9.0 °F 88% 29.93 in 1.5 mi WSW 29.9 mph - N/A Snow Blowing Snow
5:00 PM 12.2 °F -8.6 °F 8.6 °F 85% 29.92 in 3.0 mi WSW 27.6 mph - N/A Snow Blowing Snow
5:28 PM 12.2 °F -8.9 °F 8.6 °F 85% 29.93 in 3.0 mi WSW 28.8 mph - N/A Snow Blowing Snow
5:53 PM 12.0 °F -9.2 °F 8.1 °F 84% 29.95 in 4.0 mi WSW 28.8 mph - N/A Snow Blowing Snow
6:53 PM 10.0 °F -11.1 °F 7.0 °F 87% 29.98 in 4.0 mi WSW 26.5 mph - N/A Snow Blowing Snow
7:53 PM 10.9 °F -11.0 °F 8.1 °F 88% 29.99 in 3.0 mi WSW 29.9 mph - N/A Snow Blowing Snow
8:53 PM 10.0 °F -11.1 °F 7.0 °F 87% 29.99 in 5.0 mi WSW 26.5 mph - N/A Snow Blowing Snow
9:31 PM 10.4 °F -12.0 °F 8.6 °F 92% 30.00 in 2.5 mi WSW 31.1 mph - N/A Snow Blowing Snow
9:53 PM 12.0 °F -8.5 °F 9.0 °F 88% 30.02 in 2.0 mi WSW 26.5 mph - 0.00 in Snow Light Snow
10:23 PM 12.2 °F -8.2 °F 10.4 °F 92% 30.02 in 3.0 mi WSW 26.5 mph - 0.00 in Snow Blowing Snow
10:53 PM 10.9 °F -9.2 °F 7.0 °F 84% 30.04 in 5.0 mi WSW 24.2 mph - 0.00 in Snow Blowing Snow
11:53 PM 8.1 °F -12.2 °F 3.9 °F 83% 30.06 in 10.0 mi SW 21.9 mph - N/A   Scattered Clouds